Showing default

W-SERIES 4, 64543

Orbit data source: Space-Track

W-SERIES 4, 64543 is a payload satellite owned by Varda Space (US) in SSO that was launched on Mon, 23 Jun 2025 UTC via an FALCON 9 launch vehicle from the Air Force Western Test Range (AFWTR). Payload-class satellites include a variety of spacecraft equipped with specific instruments for various scientific and technological missions. These include communications satellites like Starlink; space stations such as the ISS; scientific satellites like the Hubble; Earth observation satellites from companies like Planet Labs, Umbra, and HawkEye 360; GPS; miniature CubeSats for education and research; and military/defense satellites.

Loading next visibility...
Identifier
64543, 2025-135R
Orbit
SSO
Country
Flag of USUS
Related business
Manufacturer
Varda Space
Mission
Operational Commercial Microgravity
Bus & Motor
VW, Unknown motor
Mass
300 kg wet, 55 kg dry
Launch date (UTC)
2025-06-23 (7 months ago)
Launch vehicle
FALCON 9
Launch site
Air Force Western Test Range (AFWTR)
Object type
Payload
Rocket body
Debris
Shape & HBR
Trunc Cone, 2.4 m
Radar Cross Section
Large (>1 m²)

Expand to show TLE details & history
Last TLE update: 5 hours ago

TLE from 5 hours ago
0 W-SERIES 4
1 64543U 25135R   26036.27936822  .00070177  27120-5  86262-3 0  9990
2 64543  97.4539 150.8292 0410483 175.9504 184.5221 14.99340527 34665
Epoch: 2026-02-05T06:42Z
TLE epoch observation values (Epoch: 2026-02-05T06:42:17.414Z)
Latitude
-0.00002°
Longitude
-85.17723°
Altitude
856.409 km
Speed
7.271 km/s
True Right ascension
10h 03m 19s
True Declination
0° 00' 00"
Sunlit
Object was in full shadow at epoch
Visualization orbit readout
Latitude
Unknown
Longitude
Unknown
Altitude
Unknown
Speed
Unknown
Apparent Right ascension
Unknown
Apparent Declination
Unknown
Sunlit
N/A
Visualization observer readout
Local Sidereal Time
14:08:48
Azimuth
Unknown
Elevation
Unknown
Doppler factor
Unknown
Orbital elements
Apogee altitude
850.962 km
Perigee altitude
280.879 km
Semi-major axis
6,944.058 km
Eccentricity
0.04105
Inclination
97.4539°
RAAN
150.8292°
Arg. of periapsis
175.9504°
True anomaly
184.16932°
Mean anomaly
184.5221°
Eccentric anomaly
184.34396°
Mean motion
3.75079 °/min
Orbital period
95.98 mins
BSTAR
0.00086262
Loading maneuver chart data...
Computing Atmospheric mass density...
Loading historical data...
Loading historical data...
Loading historical data...
Loading historical data...
Loading historical data...
Loading historical data...
Loading historical data...

Documentation

Showing up to 5 results
|